CW4114 Weather Reports


time (UTC)temp
F
wind
direction
speed
knots
gust
knots
rain 1hr
in
rain 24hr
in
rain mn
in
humidity
%
barometer
mb
20260505093932 41 337 2.6 5.2 0.00 0.17 0.00 79 999.1
20260505093710 42 303 2.6 6.1 0.00 0.17 0.00 78 999.1
20260505092933 42 341 2.6 6.1 0.00 0.17 0.00 79 999.1
20260505092433 42 285 2.6 8.7 0.00 0.17 0.00 78 998.9
20260505091933 42 234 2.6 8.7 0.00 0.17 0.00 78 999.0
20260505091432 42 298 1.7 8.7 0.00 0.17 0.00 78 998.8
20260505090933 42 305 3.5 13.0 0.00 0.17 0.00 77 998.7
20260505090700 42 314 3.5 13.0 0.00 0.17 0.00 77 998.7
20260505085933 43 286 4.3 9.6 0.00 0.17 0.00 77 998.6
20260505085433 43 326 4.3 7.8 0.00 0.17 0.00 76 998.6
20260505084933 43 271 3.5 10.4 0.00 0.17 0.00 76 998.6
20260505084433 43 300 4.3 10.4 0.00 0.17 0.00 77 998.5
20260505084200 43 279 2.6 6.1 0.00 0.17 0.00 77 998.5
20260505083432 43 285 4.3 7.8 0.00 0.17 0.00 76 998.5
20260505082933 44 271 1.7 8.7 0.00 0.17 0.00 76 998.5
20260505082432 44 306 2.6 9.6 0.00 0.17 0.00 77 998.6
20260505081932 44 309 4.3 9.6 0.00 0.17 0.00 78 998.5
20260505081433 44 295 4.3 7.8 0.00 0.17 0.00 78 998.4
20260505080933 44 279 2.6 6.1 0.00 0.17 0.00 77 998.4
20260505080430 44 298 2.6 6.1 0.00 0.18 0.00 77 998.4
20260505075933 45 299 3.5 7.8 0.00 0.18 0.00 76 998.3
20260505075425 45 331 3.5 9.6 0.00 0.18 0.00 76 998.2
20260505075148 45 295 3.5 13.0 0.00 0.18 0.00 76 998.2
20260505074422 45 290 3.5 13.0 0.00 0.18 0.00 77 998.2
20260505073921 45 306 2.6 6.1 0.00 0.18 0.00 78 998.2
20260505073422 45 268 3.5 6.1 0.00 0.18 0.00 78 998.1
20260505072922 45 326 3.5 6.1 0.00 0.18 0.00 78 998.1
20260505072424 45 269 3.5 6.1 0.00 0.18 0.00 78 998.1
20260505071921 45 290 1.7 6.1 0.00 0.18 0.00 78 998.2
20260505071421 45 292 2.6 7.8 0.00 0.18 0.00 78 998.1
20260505070923 45 314 3.5 7.8 0.00 0.18 0.00 78 998.1
20260505070421 45 324 3.5 7.8 0.00 0.18 0.00 78 997.9
20260505065921 45 326 2.6 7.8 0.00 0.18 0.00 79 998.1
20260505065421 45 300 3.5 7.8 0.00 0.18 0.00 82 998.1
20260505064919 45 265 2.6 7.8 0.00 0.18 0.00 82 997.9
20260505064421 45 307 2.6 6.1 0.00 0.18 0.00 83 998.1
20260505063918 45 302 3.5 6.1 0.00 0.18 0.00 83 998.1
20260505063418 45 310 2.6 5.2 0.00 0.18 0.00 83 998.1
20260505063147 45 257 1.7 4.3 0.00 0.18 0.00 83 997.9
20260505062418 45 305 2.6 4.3 0.00 0.18 0.00 83 998.1
20260505061919 45 276 2.6 5.2 0.00 0.18 0.00 82 998.1
20260505061418 46 292 1.7 5.2 0.00 0.18 0.00 82 998.1
20260505061145 46 279 1.7 4.3 0.00 0.18 0.00 82 997.9
20260505060418 46 274 2.6 4.3 0.00 0.18 0.00 82 998.1
20260505055917 46 306 1.7 5.2 0.00 0.18 0.00 82 997.9
20260505055417 46 279 1.7 5.2 0.00 0.18 0.00 82 998.1
20260505054917 46 276 1.7 6.1 0.00 0.18 0.00 83 998.1
20260505054419 45 282 1.7 6.1 0.00 0.18 0.00 84 997.7
20260505053918 45 330 2.6 6.1 0.00 0.18 0.00 86 997.6
20260505053416 45 276 1.7 6.1 0.00 0.18 0.00 87 997.7
20260505052917 45 293 2.6 5.2 0.00 0.18 0.00 88 997.6
20260505052417 45 290 1.7 5.2 0.00 0.18 0.00 88 997.6
20260505051916 45 257 2.6 5.2 0.00 0.18 0.00 89 997.6
20260505051416 45 341 1.7 4.3 0.00 0.18 0.00 89 997.5
20260505050916 45 295 0.9 4.3 0.00 0.18 0.00 89 997.4
20260505050642 45 298 1.7 3.5 0.00 0.18 0.00 89 997.4
20260505041644 45 296 1.7 6.1 0.00 0.18 0.00 91 996.6
20260505041146 45 307 1.7 6.1 0.00 0.18 0.00 91 996.5
20260505040414 45 286 1.7 5.2 0.00 0.18 0.00 91 996.4
20260505035915 45 319 3.5 5.2 0.00 0.18 0.18 91 996.2
20260505035642 45 358 2.6 4.3 0.00 0.18 0.18 91 996.0
20260505034915 45 0 2.6 4.3 0.00 0.18 0.18 91 995.9
20260505034416 45 326 1.7 4.3 0.00 0.18 0.18 91 995.9
20260505033914 45 358 1.7 4.3 0.00 0.18 0.18 91 995.9
20260505033416 45 300 0.9 4.3 0.00 0.18 0.18 91 995.9
20260505032913 45 343 1.7 3.5 0.00 0.18 0.18 91 995.9
20260505032640 45 348 1.7 3.5 0.00 0.18 0.18 91 995.9
20260505031913 45 331 0.9 3.5 0.00 0.18 0.18 91 996.0
20260505031412 45 353 1.7 3.5 0.00 0.18 0.18 92 996.0
20260505030913 45 11 0.9 2.6 0.00 0.18 0.18 92 996.0
20260505030412 45 2 0.9 2.6 0.00 0.18 0.18 92 996.2
20260505025912 45 350 0.9 3.5 0.00 0.18 0.18 92 996.2
20260505025410 45 330 1.7 3.5 0.00 0.18 0.18 92 996.2
20260505024911 45 344 0.0 5.2 0.01 0.18 0.18 92 996.3
20260505024412 45 21 2.6 5.2 0.01 0.18 0.18 93 996.4
20260505024157 45 272 1.7 3.5 0.01 0.18 0.18 93 996.7
20260505023634 45 305 0.9 3.5 0.01 0.18 0.18 92 996.2
20260505022904 45 336 1.7 3.5 0.01 0.18 0.18 92 996.3
20260505022406 45 7 1.7 3.5 0.01 0.18 0.18 93 996.2
20260505021906 45 334 1.7 3.5 0.01 0.18 0.18 92 996.3
20260505021403 45 358 1.7 3.5 0.02 0.18 0.18 92 996.0
20260505020903 45 348 2.6 3.5 0.02 0.18 0.18 92 996.0
20260505020401 45 348 2.6 5.2 0.02 0.18 0.18 92 996.0
20260505015901 45 345 2.6 5.2 0.02 0.16 0.18 93 996.3
20260505015629 45 337 1.7 3.5 0.03 0.16 0.17 93 996.1
20260505014859 45 351 0.9 3.5 0.02 0.16 0.17 93 995.8
20260505014358 45 333 1.7 4.3 0.03 0.16 0.17 93 996.1
20260505014135 45 338 1.7 5.2 0.04 0.16 0.17 93 995.6
20260505013357 45 337 1.7 5.2 0.04 0.16 0.17 93 996.2
20260505012855 45 340 2.6 5.2 0.05 0.16 0.17 93 996.1
20260505012352 45 0 2.6 4.3 0.05 0.16 0.17 93 995.7
20260505011853 45 347 1.7 3.5 0.06 0.16 0.17 92 995.4
20260505011353 45 358 1.7 4.3 0.05 0.16 0.16 92 995.2
20260505010901 45 28 2.6 7.8 0.06 0.16 0.16 92 995.4
20260505010111 45 322 3.5 10.4 0.09 0.08 0.16 92 995.9
20260505005350 44 358 1.7 10.4 0.10 0.08 0.15 92 995.8
20260505004847 45 348 3.5 9.6 0.13 0.08 0.15 91 995.6
20260505004346 45 333 5.2 9.6 0.12 0.08 0.14 91 995.5
20260505003850 45 337 5.2 9.6 0.11 0.08 0.13 91 995.4
20260505003349 45 336 4.3 11.3 0.11 0.09 0.13 91 995.3
20260505002846 46 333 4.3 11.3 0.10 0.09 0.12 92 995.2
20260505002341 46 348 3.5 7.8 0.10 0.11 0.12 92 994.9
20260505001841 46 0 3.5 8.7 0.09 0.13 0.11 92 995.1
20260505001336 46 337 3.5 8.7 0.10 0.15 0.11 91 995.1
20260505000849 46 24 3.5 6.1 0.09 0.17 0.10 91 994.9
20260505000334 46 345 3.5 5.2 0.08 0.18 0.09 90 994.9
20260504235604 46 334 1.7 7.8 0.04 0.14 0.05 89 994.6
20260504234833 46 1 1.7 7.8 0.01 0.17 0.02 88 994.5
20260504234336 46 334 2.6 4.3 0.01 0.21 0.02 87 994.1
20260504233834 46 300 1.7 5.2 0.01 0.24 0.02 86 993.8
20260504233334 47 79 0.9 7.8 0.01 0.24 0.02 85 993.5
20260504232833 47 1 2.6 8.7 0.01 0.24 0.02 84 993.4
20260504232335 48 62 1.7 9.6 0.01 0.24 0.02 82 993.4
20260504232058 48 37 3.5 11.3 0.01 0.24 0.02 80 993.3
20260504231409 49 234 3.5 11.3 0.00 0.24 0.01 77 993.7
20260504230830 50 9 3.5 8.7 0.00 0.24 0.01 73 993.6
20260504230332 50 290 3.5 6.1 0.00 0.24 0.01 71 994.0
20260504225829 50 355 3.5 10.4 0.00 0.24 0.01 67 993.9
20260504225356 51 351 1.7 10.4 0.00 0.24 0.01 63 993.5
20260504225104 53 327 4.3 9.6 0.00 0.24 0.01 58 992.8
20260504224323 56 27 4.3 9.6 0.00 0.24 0.01 53 992.2
20260504223822 59 21 3.5 8.7 0.00 0.24 0.01 46 992.5
20260504223552 66 15 2.6 13.9 0.00 0.24 0.01 35 992.0
20260504223128 72 357 6.1 16.5 0.00 0.24 0.01 33 991.9
20260504223118 73 257 10.4 20.0 0.00 0.24 0.01 33 991.1
20260504221817 73 295 12.2 23.5 0.00 0.24 0.01 33 991.0
20260504221349 73 245 13.0 24.3 0.00 0.24 0.01 33 990.9
20260504220815 73 254 10.4 27.8 0.00 0.24 0.01 33 991.0
20260504220314 73 268 12.2 27.8 0.00 0.24 0.01 33 991.1
20260504215809 73 275 11.3 25.2 0.00 0.24 0.01 33 991.0
20260504215308 73 238 9.6 25.2 0.00 0.24 0.01 33 991.0
20260504214812 73 274 11.3 22.6 0.00 0.24 0.01 33 990.8
20260504214307 73 268 9.6 16.5 0.00 0.24 0.01 33 990.7
20260504213807 73 286 9.6 16.5 0.00 0.24 0.01 33 990.7
20260504213307 73 283 9.6 16.5 0.00 0.24 0.01 33 990.7
20260504212807 73 252 8.7 16.5 0.00 0.24 0.01 34 990.7
20260504212311 73 264 7.0 14.8 0.00 0.24 0.01 34 990.7
20260504211807 73 271 9.6 15.6 0.00 0.24 0.01 33 990.8
20260504211308 73 288 8.7 16.5 0.00 0.24 0.01 32 990.7
20260504210809 73 281 7.8 16.5 0.00 0.24 0.01 32 990.7
20260504210306 73 251 8.7 19.1 0.00 0.24 0.01 32 990.7
20260504205808 73 244 9.6 26.9 0.00 0.24 0.01 32 990.7
20260504205305 74 247 11.3 33.0 0.00 0.24 0.01 32 990.6
20260504204804 74 282 13.9 33.0 0.00 0.24 0.01 31 990.5
20260504204533 74 254 9.6 23.5 0.00 0.24 0.01 30 990.7
20260504203804 74 275 13.0 20.9 0.00 0.24 0.01 29 990.5
20260504203307 75 279 12.2 24.3 0.00 0.24 0.01 29 990.4
20260504202802 75 268 11.3 24.3 0.00 0.24 0.01 29 990.5
20260504201803 75 262 11.3 24.3 0.00 0.24 0.01 28 990.5
20260504201302 76 268 13.0 24.3 0.00 0.24 0.01 27 990.5
20260504200802 76 272 13.0 23.5 0.00 0.24 0.01 27 990.5
20260504200303 76 234 11.3 23.5 0.00 0.24 0.01 26 990.5
20260504195802 77 272 13.9 23.5 0.00 0.24 0.01 26 990.5
20260504195526 77 272 11.3 20.9 0.00 0.24 0.01 26 990.5
20260504194808 77 241 11.3 23.5 0.00 0.24 0.01 27 990.4
20260504194304 77 199 9.6 30.4 0.00 0.24 0.01 27 990.5
20260504193802 77 252 13.0 30.4 0.00 0.24 0.01 26 990.5
20260504193305 78 228 13.0 29.5 0.00 0.24 0.01 26 990.6
20260504193028 77 275 15.6 29.5 0.00 0.24 0.01 25 990.5
20260504192300 77 221 14.8 26.9 0.00 0.24 0.01 25 990.7
20260504191757 77 258 13.9 25.2 0.00 0.24 0.01 24 990.8
20260504191258 78 238 13.0 23.5 0.00 0.24 0.01 25 990.5
20260504190826 78 220 7.0 17.4 0.00 0.24 0.01 27 990.8
20260504190818 78 272 11.3 19.1 0.00 0.24 0.01 26 990.8
20260504185730 77 261 11.3 19.1 0.00 0.24 0.01 27 990.8
20260504185502 76 257 7.8 26.9 0.00 0.24 0.01 28 991.1
20260504184726 76 207 14.8 26.9 0.00 0.24 0.01 27 991.2
20260504183723 76 237 11.3 25.2 0.00 0.24 0.01 28 991.3
20260504183225 76 257 16.5 24.3 0.00 0.24 0.01 28 991.4
20260504182718 76 276 13.0 25.2 0.00 0.24 0.01 28 991.6
20260504182219 76 234 13.0 25.2 0.00 0.24 0.01 27 991.6
20260504181716 76 231 13.0 25.2 0.00 0.24 0.01 27 991.5
20260504181230 76 282 10.4 26.1 0.00 0.24 0.01 28 991.6
20260504180711 76 248 9.6 26.1 0.00 0.24 0.01 30 991.5
20260504180217 74 250 9.6 20.9 0.00 0.24 0.01 30 991.8
20260504175559 74 233 10.4 23.5 0.00 0.24 0.01 30 991.7
20260504175100 74 255 13.9 26.9 0.00 0.24 0.01 29 991.9
20260504174933 74 244 13.9 26.9 0.00 0.24 0.01 29 992.2
20260504174057 74 240 10.4 24.3 0.00 0.24 0.01 30 992.4
20260504173830 74 219 13.0 24.3 0.00 0.24 0.01 29 992.2
20260504173058 74 245 13.0 24.3 0.00 0.24 0.01 28 992.2
20260504172557 74 258 12.2 26.1 0.00 0.24 0.01 30 992.4
20260504172057 74 264 17.4 26.1 0.00 0.24 0.01 30 992.6
20260504171557 74 275 10.4 16.5 0.00 0.24 0.01 32 992.6
20260504171058 0 240 11.3 0.0 0.00 0.00 0.00 992.6
20260504160304 70 265 7.8 17.4 0.00 0.25 0.01 41 994.0
20260504150801 64 221 9.6 13.9 0.00 0.25 0.01 57 995.0
20260504150304 63 221 7.8 12.2 0.00 0.25 0.01 60 995.2
20260504141249 60 220 5.2 11.3 0.00 0.25 0.01 63 995.7
20260504140750 60 223 7.0 11.3 0.00 0.25 0.01 66 995.8
20260504140249 59 171 2.6 11.3 0.00 0.25 0.01 67 995.9
20260504130734 53 231 4.3 9.6 0.00 0.25 0.01 82 996.8
20260504130237 52 226 6.1 9.6 0.00 0.25 0.01 84 996.8
20260504120238 47 258 4.3 9.6 0.00 0.25 0.01 93 997.3
20260504110639 43 213 4.3 8.7 0.00 0.25 0.01 95 997.6
20260504110141 43 210 5.2 8.7 0.00 0.25 0.01 95 997.6
20260504100135 43 230 3.5 6.1 0.00 0.25 0.01 95 998.4